Location: Ku?niki
(51.4449°N, 17.8974°E)
Time: 06:56:46
(UTC+00:00)

DX 1 - Pass Details

Date: 28 June 2022
Orbit: 617 x 629 km, 98.4° (Epoch: 07 August)

Event Time Altitude Azimuth Distance (km) Brightness Sun altitude
Rises 20:02:44 0° 16° (NNE) 2,935 ? -6.6°
Reaches altitude 10° 20:04:57 10° 18° (NNE) 2,022 ? -6.8°
Maximum altitude 20:09:21 73° 104° (ESE) 664 ? -7.2°
Drops below altitude 10° 20:13:42 10° 189° (S) 2,001 ? -7.6°
Sets 20:15:53 0° 191° (SSW) 2,901 ? -7.8°
